Location: Aultman
(40.9284°N, 81.4173°W)
Time: 15:12:15
(UTC+00:00)

Hubble Space Telescope - Pass Details

Date: 24 January 2021
Orbit: 536 x 539 km, 28.5° (Epoch: 01 March)

Event Time Altitude Azimuth Distance (km) Brightness Sun altitude
Rises 23:40:27 0° 244° (WSW) 2,673 6.1 -12.7°
Reaches altitude 10° 23:43:47 10° 216° (SW) 1,782 4.2 -13.4°
Maximum altitude 23:45:41 13° 188° (S) 1,601 3.4 -13.7°
Drops below altitude 10° 23:47:36 10° 160° (SSE) 1,782 3.4 -14.1°
Enters shadow 23:49:45 - 139° (SE) 2,305 3.7 -14.5°
